#timestamp,LO_Frequency,Hit,StdDev 
1541962815.7,286047005.1,N
1541962835.6,286047003.9,N
1541962855.4,286047001.5,N
1541962875.2,286047003.7,N
1541962895.1,286047003.2,N
1541962896.0,286047003.2,N
1541962915.8,286047004.2,N
1541962935.6,286047005.8,N
1541962955.5,286047004.0,N
1541962975.3,286047003.9,N
1541962995.2,286047004.9,N
1541963015.9,286047004.7,N
1541963035.7,286047008.6,N
1541963055.6,286047007.9,N
1541963075.4,286047010.6,N
1541963095.2,286047006.2,N
1541963115.1,286047009.1,N
1541963116.0,286047009.1,N
1541963135.8,286047009.0,N
1541963155.7,286047009.7,N
1541963175.5,286047013.5,N
1541963195.3,286047009.3,N
1541963215.2,286047012.0,N
1541963235.0,286047009.5,N
1541963235.9,286047009.5,N
1541963255.7,286047009.9,N
1541963275.6,286047012.4,N
1541963295.4,286047011.8,Y
1541963315.3,286047005.8,P
1541963335.1,286047005.2,P
1541963336.0,286047005.2,P
1541963355.8,286047006.5,Y
1541963375.7,286047002.1,P
1541963395.5,286047002.8,N
1541963415.4,286047004.1,N
1541963435.2,286047003.3,N
1541963455.0,286047002.0,N
1541963455.9,286047002.0,N
1541963475.8,286047001.5,N
1541963495.6,286047003.8,N
1541963515.4,286047001.8,N
1541963535.3,286047001.5,N
1541963555.1,286047002.3,N
1541963575.9,286047003.1,N
1541963595.7,286047005.5,Y
1541963615.5,286047002.3,P
1541963635.4,286047000.1,N
1541963655.2,286047000.2,N
1541963675.0,286047004.2,Y
1541963675.9,286047004.2,P
1541963695.8,286047002.3,N
1541963715.6,286047000.1,N
1541963735.5,286047000.7,N
1541963755.3,286047002.2,N
1541963775.1,286047001.5,N
1541963795.9,286047001.5,N
1541963815.7,286047002.2,N
1541963835.5,286047004.3,Y
1541963855.4,286047004.4,P
1541963875.2,286047001.7,N
1541963895.1,286047001.9,N
1541963896.0,286047001.9,N
1541963915.8,286047005.4,Y
1541963935.6,286047003.9,P
1541963955.5,286047002.8,P
1541963975.3,286047000.0,N
1541963995.1,286046999.9,N
1541964015.9,286047002.1,N
1541964035.7,286047001.8,N
1541964055.6,286047001.8,N
1541964075.4,286047001.6,N
1541964095.2,286047002.8,N
1541964115.1,286047003.3,N
1541964116.0,286047003.3,N
1541964135.8,286047004.4,Y
1541964155.7,286047002.5,P
1541964175.5,286047003.7,P
1541964195.3,286047001.3,N
1541964215.2,286047003.9,Y
1541964235.0,286047000.3,P
1541964235.9,286047000.3,N
1541964255.7,286047002.4,N
1541964275.6,286047001.0,N
1541964295.4,286047000.3,N
1541964315.3,286046999.8,N
1541964335.1,286047001.5,N
1541964336.0,286047001.5,N
1541964355.8,286047001.6,N
1541964375.7,286047001.6,N
1541964395.5,286047003.0,Y
1541964415.4,286047002.1,P
1541964435.2,286047002.1,P
1541964455.0,286047004.2,P
1541964455.9,286047004.2,Y
1541964475.8,286046998.1,P
1541964495.6,286047000.7,N
1541964515.4,286046998.4,N
1541964535.3,286046999.4,N
1541964555.1,286046998.3,N
1541964575.9,286047000.5,N
1541964595.7,286047002.4,N
1541964615.5,286046998.2,N
1541964635.4,286047001.2,N
1541964655.2,286047001.0,N
1541964675.0,286046998.5,N
1541964675.9,286046998.5,N
1541964695.8,286046999.5,N
1541964715.6,286046999.4,N
1541964735.5,286047000.5,N
1541964755.3,286047000.5,N
1541964775.1,286047003.6,N
1541964795.9,286047001.3,N
1541964815.7,286047002.1,N
1541964835.5,286047003.8,N
1541964855.4,286047000.5,N
1541964875.2,286046999.7,N
1541964895.0,286047000.4,N
1541964896.0,286047000.4,N
1541964915.8,286047001.4,N
1541964935.6,286047001.4,N
1541964955.5,286047001.9,N
1541964975.3,286047001.7,N
1541964995.1,286047003.5,N
1541965015.9,286047003.3,N
1541965035.7,286047003.1,N
1541965055.6,286047004.3,N
1541965075.4,286047001.8,N
1541965095.2,286047000.6,N
1541965115.1,286047001.1,N
1541965116.0,286047001.1,N
1541965135.8,286047000.3,N
1541965155.6,286046996.9,N
1541965175.5,286046995.0,Y
1541965195.3,286046994.9,P
1541965215.2,286046997.5,N
1541965235.9,286046997.6,N
1541965255.7,286046997.8,N
1541965275.6,286046997.1,N
1541965295.4,286046997.3,N
1541965315.3,286046996.8,N
1541965335.1,286046999.5,N
1541965336.0,286046999.5,N
1541965355.8,286046997.0,N
1541965375.7,286046995.2,Y
1541965395.5,286046998.2,P
1541965415.4,286046996.6,P
1541965435.2,286046999.0,N
1541965455.0,286046999.1,N
1541965455.9,286046999.1,N
1541965475.8,286046999.1,N
1541965495.6,286046996.6,Y
1541965515.5,286046996.6,P
1541965535.3,286046997.4,N
1541965555.1,286046997.4,P
1541965575.9,286046997.2,Y
1541965595.7,286046998.8,P
1541965615.5,286046999.3,N
1541965635.4,286046997.0,P
1541965655.2,286046995.3,Y
1541965675.1,286047000.6,P
1541965676.0,286047000.6,N
1541965695.8,286047002.6,N
1541965715.6,286047000.5,N
1541965735.5,286047000.5,N
1541965755.3,286047000.9,N
1541965775.2,286046998.1,N
1541965795.9,286046996.9,N
1541965815.7,286046996.7,N
1541965835.6,286046997.1,N
1541965855.4,286046996.7,N
1541965875.3,286046995.2,N
1541965895.1,286046993.8,N
1541965896.0,286046993.8,N
1541965915.8,286046999.2,N
1541965935.7,286046996.5,N
1541965955.5,286046998.1,N
1541965975.3,286046996.9,N
1541965995.2,286046996.9,N
1541966015.0,286046997.0,N
1541966015.9,286046997.0,N
1541966035.8,286046997.1,N
1541966055.6,286046996.3,N
1541966075.4,286046995.4,N
1541966095.3,286046995.7,N
1541966115.1,286046993.9,N
1541966135.9,286046992.0,Y
1541966155.7,286046997.9,P
1541966175.5,286046995.3,P
1541966195.4,286046996.3,P
1541966215.2,286046994.6,Y
1541966235.0,286046995.4,P
1541966235.9,286046995.4,P
1541966255.8,286046995.1,P
1541966275.6,286046998.0,Y
1541966295.5,286047000.0,P
1541966315.3,286047000.4,N
1541966335.1,286046998.4,N
1541966355.9,286046996.7,N
1541966375.7,286046998.5,N
1541966395.5,286046996.5,N
